Regional Weather Roundup
Issued by NWS Wakefield, VA

Home | Current Version | Previous Version | Text Only | Print | Product List | Glossary Off
Versions: 1 2 3 4 5 6 7 8 9 10 11 12 13 14 15 16 17 18 19 20 21 22 23 24 25 26 27 28 29 30 31 32 33 34 35 36 37 38 39 40 41 42 43 44 45 46 47 48 49

000
ASUS41 KAKQ 091015
RWRAKQ

REGIONAL WEATHER ROUNDUP
NATIONAL WEATHER SERVICE WAKEFIELD VA
500 AM EST TUE FEB 09 2016

Note: "fair" indicates few or no clouds below 12,000 feet with no
significant weather and/or obstructions to visibility. * = Denotes
station may not report precipitation (e.g., rain,snow,etc.),
thunder or fog.

VAZ042-051-052>054-056-091100-
NORTHERN VIRGINIA

CITY           SKY/WX    TMP DP  RH WIND       PRES   REMARKS
WASH NATIONAL  LGT RAIN  37  35  92 E6        29.58S FOG
DULLES         LGT SNOW  33  32  96 CALM      29.57R FOG
FORT BELVOIR   DRIZZLE   36  34  93 VRB1      29.57S FOG
QUANTICO       CLOUDY    39  36  89 E3        29.58S FOG
FREDERICKSBRG* CLOUDY    37  37 100 CALM      29.56S
STAFFORD*      LGT RAIN  37  36  97 CALM      29.60S
WARRENTON      CLOUDY    36  36 100 N3        29.55S FOG
CULPEPER*      CLOUDY    34  34  99 CALM      29.57S FOG
MANASSAS*      CLOUDY    36  36 100 N6        29.57S
LEESBURG*      LGT SNOW  34  34 100 CALM      29.57S
WINCHESTER     CLOUDY    36  34  93 CALM      29.54R
FRONT ROYAL*   CLOUDY    34  32  93 CALM      29.53S
LURAY*         DRIZZLE   32  32 100 SE3       29.53S
$$

VAZ048-049-060>072-079>083-091100-
CENTRAL AND SOUTH CENTRAL VIRGINIA

CITY           SKY/WX    TMP DP  RH WIND       PRES   REMARKS
RICHMOND       CLOUDY    37  36  96 SE3       29.56R
CHESTERFIELD*  CLOUDY   N/A N/A N/A CALM      29.57S
PETERSBURG*    CLOUDY    39  38  97 CALM      29.57S FOG
HANOVER        CLOUDY    38  37  97 CALM      29.57R
TAPPAHANNOCK*  CLOUDY    40  40 100 CALM      29.57S
QUINTON*       CLOUDY    38  38 100 CALM      29.56R
CHARLOTTSVILLE FOG       35  33  92 CALM      29.55R VSB 3/4
GORDONSVILLE*  CLOUDY    35  35 100 CALM      29.55S FOG
ORANGE*        CLOUDY    36  36 100 CALM      29.57S FOG
LOUISA*        CLOUDY    36  36 100 CALM      29.54S FOG
BUMPASS*       CLOUDY    35  35  99 CALM      29.56R
FARMVILLE*     FOG       28  28 100 CALM      29.56R VSB 1
CREWE*         CLOUDY    31  31 100 W3        29.57R VSB 3/4
FORT PICKETT*  CLOUDY    32  32 100 W5        29.57R
CHASE CITY*    CLOUDY    32  31  94 CALM      29.58R
CLARKSVILLE*   CLOUDY    34  28  80 CALM      29.58R
SOUTH HILL*    CLOUDY    31  29  94 CALM      29.63R
LAWRENCEVILLE* PTSUNNY   30  30 100 CALM      29.58R VSB 1
EMPORIA*       CLOUDY    32  32 100 SW3       29.59S
$$

VAZ088>098-091100-
SOUTHEAST VIRGINIA

CITY           SKY/WX    TMP DP  RH WIND       PRES   REMARKS
NORFOLK        CLOUDY    42  39  89 W3        29.55R
VIRGINIA BEACH CLOUDY    45  39  79 W8        29.54S
NORFOLK NAVAL  CLOUDY    42  39  89 W5        29.56R
WEST POINT*    CLOUDY    39  39  98 CALM      29.57S
SALUDA*        NOT AVBL
NEWPORT NEWS   CLOUDY    40  39  97 W5        29.56R
LANGLEY AFB    CLOUDY    41  39  93 NW5       29.55R
FORT EUSTIS    CLOUDY    40  38  94 W2        29.54S
WILLIAMSBURG*  CLOUDY    41  41 100 SW3       29.57S
HR EXEC AP*    CLOUDY    39  36  87 W5        29.58S
FRANKLIN*      CLOUDY    37  37  98 CALM      29.58S FOG
US460-WAKEFLD  CLOUDY    39  37  92 CALM      29.57S FOG
$$

VAZ020-022-025-037-045-091100-
WEST CENTRAL AND SOUTHWEST VIRGINIA

CITY           SKY/WX    TMP DP  RH WIND       PRES   REMARKS
STAUNTON*      LGT SNOW  36  34  92 CALM      29.55R
WAYNESBORO*    CLOUDY    32  26  77 CALM      29.52S
HOT SPRINGS VA CLOUDY   N/A N/A N/A W10       29.42S
LYNCHBURG      MOCLDY    28  25  88 SW5       29.58R
DANVILLE       CLOUDY    31  28  89 W6        29.60S
SOUTH BOSTON*  CLOUDY    34  27  76 SW5       29.59R
MARTINSVILLE   CLOUDY    24  23  96 CALM      29.63R
ROANOKE        CLOUDY    32  26  78 W7        29.59R
BLACKSBURG     CLOUDY    29  26  86 W5        29.58R
DUBLIN*        LGT SNOW  30  26  87 W7        29.58S
MARION*        LGT SNOW  26  23  88 W17G26    29.59S WCI  13
HILLSVILLE*    LGT SNOW  26  23  90 NW10G21   29.53S WCI  16
RICHLANDS*     LGT SNOW  23  19  87 W7        29.59R
WISE*          LGT SNOW  23  18  80 W5        29.62R
ABINGDON*      LGT SNOW  27  22  82 W9        29.64R
$$

MDZ021>025-VAZ099-100-091100-
SOUTHERN MARYLAND AND THE DELMARVA PENINSULA

CITY           SKY/WX    TMP DP  RH WIND       PRES   REMARKS
PATUXENT RIVER CLOUDY    38  35  89 E9        29.57S FOG
BAY BRIDGE APT MIX PCPN  36  34  93 E6        29.59S
LEONARDTOWN    CLOUDY    36  34  93 E3        29.58S
DOVER          FLURRIES  36  36 100 E12       29.59R
GEORGETOWN     MIX PCPN  37  36  96 E8        29.59S
EASTON         DRIZZLE   37  37 100 SE5       29.62R
CAMBRIDGE      CLOUDY    36  34  93 E5        29.58S
SALISBURY      LGT RAIN  38  36  92 NE6       29.58R
OCEAN CITY     LGT RAIN  40  36  86 E9        29.57S
WALLOPS ISLAND LGT RAIN  41  38  89 NE9       29.56F
ACCOMACK*      RAIN      37  36  93 NE6       29.55F
$$

NCZ012>017-030>032-091100-
NORTH CENTRAL AND EASTERN NORTH CAROLINA

CITY           SKY/WX    TMP DP  RH WIND       PRES   REMARKS
ROANOKE RAPIDS PTSUNNY   32  32 100 CALM      29.59R
RALEIGH        CLOUDY    36  33  89 CALM      29.61R
ELIZABETH CITY MOCLDY    39  38  96 W8        29.56F
AHOSKIE*       CLOUDY    36  35  97 CALM      29.60R FOG
EDENTON*       CLOUDY    42  42  99 W5        29.59R
CURRITUCK*     MOCLDY    41  40  96 SW6       29.55F
KILL DEVIL HLS CLOUDY    42  39  87 W9        29.53S
MANTEO         MOCLDY    41  40  96 W9        29.55S
CAPE HATTERAS  CLOUDY    43  39  86 W10G18    29.58R
TARBORO*       CLOUDY    37  37  98 CALM      29.61S
GOLDSBORO      MOCLDY    37  37 100 SW2       29.60R
WASHINGTON     MOCLDY    38  37  95 CALM      29.60R
GREENVILLE     PTCLDY    37  36  93 CALM      29.64S FOG
NEW BERN       PTCLDY    39  37  92 SW6       29.61S
WILMINGTON     PTCLDY    41  37  86 W10       29.64R
$$

VAZ048-091100-
ELSEWHERE

CITY           SKY/WX    TMP DP  RH WIND       PRES   REMARKS
HARRISBURG PA  LGT SNOW  32  28  85 E9        29.58F
BALTIMORE      LGT SNOW  34  33  96 E9        29.58S FOG
ANNAPOLIS      CLOUDY    37  35  92 E7        29.58S
ANDREWS AFB    LGT RAIN  36  34  94 E8        29.55S
PHILADELPHIA   CLOUDY    32  27  81 NE10      29.64S WCI  24
HENDERSON NC   CLOUDY    36  27  69 SW3       29.59R
GREENSBORO     CLOUDY    34  27  75 W6        29.59F
ROCKY MOUNT    CLOUDY    37  35  92 CALM      29.60R
$$

VAZ100-091100-
MARINE

STATION/POSITION TIME  TEMP    WIND        PRES    WAVE   SWELL
                       AIR SEA DIR/SP/G            HT/PER HT/PER
                 (UTC) (F)     (DEG/KT/KT) (MB)    (FT/S) (FT/S)
BRANDYWINE LGT   0900   37      70/ 13/ 14 1002.0F
CAPE MAY NJ      0900   38 42   70/  7/ 10 1001.8F
LEWES DE         0900   39 41   90/ 12/ 15 1001.9F
15NM E FENWICK I 0950   41 43              1001.5S  10/15
OCEAN-CITY-INLET 0900   40 41  110/  5/  9 1000.9F
WACHAPREAGUE VA  0900   41 42   50/  6/  9 1000.7F
THOMAS POINT MD  1000   36 39  100/ 11/ 12 1002.5R
GOOSES REEF MD   1000   38 40  110/ 12/ 16 1002.5R   1/ 2
COVE POINT MD    0900   36     120/  8/ 12 1001.8F
SOLOMONS ISLAND  0900   38 41   80/  9/ 12   N/A
BISHOPS HEAD MD  0900   38 40   80/  9/ 11 1000.3F
PINEY POINT MD   0900          110/ 10/ 10   N/A
POTOMAC MD       1000   39 40  100/ 10/ 12  999.7F   1/ 3
CAMBRIDGE MD     0900   37 40   80/  9/ 11 1000.7F
LEWISETTA VA     0900   40 41  120/ 11/ 12 1000.7F
RAPPAHANNOCK LGT 0900           50/  7/  8 1001.0R
STINGRAY PT      1000   41 42   80/  6/  8 1000.7R   1/ 3
YORK RVR RNG VA  0900   42      80/  5/  5  999.9F
YORKTOWN VA      0900   42 43   60/  4/  4 1000.3F
JAMESTOWN VA     1000   39 44  250/  4/  6   N/A     0
DOMINION TERM VA 0900   42     320/  3/  4 1000.4F
KIPTOPEKE VA     0900      43   40/  3/  4   N/A
CHES BAY BRIDGE  0900   42 43  340/  7/  8  999.7F
CAPE HENRY VA    0900   42     290/  3/  8   N/A
CHESAPEAKE LGHT  0900   45     230/  1/  2 1000.5F
WILLOUBY STN VA  0900   42     350/  5/  5   N/A
CAPE HENRY BUOY  0928      45                N/A     7/13   5/13
1ST LANDING BUOY 1000      44                N/A     5/ 7
CAPE CHARLES BUO 0926      44                N/A     7/13   7/13
OFFSHORE WE BUOY 0921      46                N/A     8/13   8/13
64NM E OF VA BCH 0950   48 52  160/  4/  8  998.4F  13/14  13/14
DUCK PIER NC     0900   44     240/  9/ 12  999.7S
44100 DUCK FRF   0924      47                N/A    11/13  10/13
44056 DUCK FRF   0911      44                N/A     9/15   7/15
OREGON INLET NC  0900   44 45  240/ 10/ 11 1000.2F
HATTERAS NC      0900   45 52  280/ 12/ 14 1000.6F
DIAMOND SHLS NC  0950   48 73  300/ 17/ 23 1001.2F C1F1C2F2C3F3C4F4C5F5C6F6C7F7C8M1C9!


USA.gov is the U.S. government's official web portal to all federal, state and local government web resources and services.